"Sample Date","Sample Time","Sample Value","Units","Flow Rate","Sample Interval","Number Channels","Micron Size 0","Counts/Channel 0","Micron Size 1","Counts/Channel 1","Micron Size 2","Counts/Channel 2","Micron Size 3","Counts/Channel 3","Micron Size 4","Counts/Channel 4","Micron Size 5","Counts/Channel 5","Micron Size 6","Counts/Channel 6","Micron Size 7","Counts/Channel 7","Micron Size 8","Counts/Channel 8","Micron Size 9","Counts/Channel 9","Micron Size 10","Counts/Channel 10","Micron Size 11","Counts/Channel 11","Micron Size 12","Counts/Channel 12","Micron Size 13","Counts/Channel 13","Micron Size 14","Counts/Channel 14","Micron Size 15","Counts/Channel 15","Micron Size 16","Counts/Channel 16","Micron Size 17","Counts/Channel 17","Micron Size 18","Counts/Channel 18","Micron Size 19","Counts/Channel 19","Micron Size 20","Counts/Channel 20","Micron Size 21","Counts/Channel 21","Micron Size 22","Counts/Channel 22","Micron Size 23","Counts/Channel 23","Micron Size 24","Counts/Channel 24","Micron Size 25","Counts/Channel 25","Micron Size 26","Counts/Channel 26","Micron Size 27","Counts/Channel 27","Micron Size 28","Counts/Channel 28","Micron Size 29","Counts/Channel 29","Micron Size 30","Counts/Channel 30","Micron Size 31","Counts/Channel 31"
"03/12/08","23:00:02",26404.000,"cc",28243.131,6.00,6,0.100,22725.000,0.200,1621.000,0.300,773.000,0.500,934.000,1.000,351.000,5.000,0
"03/12/08","23:00:08",26625.000,"cc",28321.459,6.00,6,0.100,22780.000,0.200,1667.000,0.300,829.000,0.500,970.000,1.000,379.000,5.000,0
"03/12/08","23:00:14",26271.000,"cc",28351.461,6.00,6,0.100,22717.000,0.200,1502.000,0.300,757.000,0.500,944.000,1.000,351.000,5.000,0
"03/12/08","23:00:20",26438.000,"cc",28344.852,6.00,6,0.100,22715.000,0.200,1522.000,0.300,808.000,0.500,1028.000,1.000,365.000,5.000,0
"03/12/08","23:00:26",26303.000,"cc",28352.881,6.00,6,0.100,22663.000,0.200,1588.000,0.300,770.000,0.500,940.000,1.000,342.000,5.000,0
"03/12/08","23:00:32",26136.000,"cc",28244.316,6.00,6,0.100,22613.000,0.200,1510.000,0.300,730.000,0.500,924.000,1.000,359.000,5.000,0
"03/12/08","23:00:38",26335.000,"cc",28360.772,6.00,6,0.100,22676.000,0.200,1538.000,0.300,761.000,0.500,1019.000,1.000,341.000,5.000,0
"03/12/08","23:00:44",26432.000,"cc",28318.750,6.00,6,0.100,22807.000,0.200,1536.000,0.300,801.000,0.500,949.000,1.000,339.000,5.000,0
"03/12/08","23:00:50",26465.000,"cc",28254.891,6.00,6,0.100,22831.000,0.200,1587.000,0.300,765.000,0.500,960.000,1.000,322.000,5.000,0
"03/12/08","23:00:56",26206.000,"cc",28366.051,6.00,6,0.100,22455.000,0.200,1574.000,0.300,781.000,0.500,1040.000,1.000,356.000,5.000,0
"03/12/08","23:01:02",26341.000,"cc",28287.123,6.00,6,0.100,22809.000,0.200,1472.000,0.300,743.000,0.500,974.000,1.000,343.000,5.000,0
"03/12/08","23:01:08",26742.000,"cc",28351.006,6.00,6,0.100,23009.000,0.200,1646.000,0.300,747.000,0.500,1010.000,1.000,330.000,5.000,0
"03/12/08","23:01:14",26436.000,"cc",28323.344,6.00,6,0.100,22582.000,0.200,1668.000,0.300,804.000,0.500,1005.000,1.000,377.000,5.000,0
"03/12/08","23:01:20",26797.000,"cc",28380.291,6.00,6,0.100,22935.000,0.200,1630.000,0.300,844.000,0.500,1028.000,1.000,360.000,5.000,0
"03/12/08","23:01:26",26168.000,"cc",28326.148,6.00,6,0.100,22515.000,0.200,1582.000,0.300,721.000,0.500,993.000,1.000,357.000,5.000,0
"03/12/08","23:01:32",26407.000,"cc",28184.893,6.00,6,0.100,22884.000,0.200,1511.000,0.300,742.000,0.500,943.000,1.000,327.000,5.000,0
"03/12/08","23:01:38",26433.000,"cc",28304.684,6.00,6,0.100,22797.000,0.200,1561.000,0.300,778.000,0.500,949.000,1.000,348.000,5.000,0
"03/12/08","23:01:44",26321.000,"cc",28365.631,6.00,6,0.100,22774.000,0.200,1504.000,0.300,759.000,0.500,930.000,1.000,354.000,5.000,0
"03/12/08","23:01:50",26230.000,"cc",28384.887,6.00,6,0.100,22644.000,0.200,1526.000,0.300,750.000,0.500,975.000,1.000,335.000,5.000,0
"03/12/08","23:01:56",26238.000,"cc",28260.156,6.00,6,0.100,22609.000,0.200,1583.000,0.300,720.000,0.500,960.000,1.000,366.000,5.000,0
"03/12/08","23:02:02",26024.000,"cc",28251.188,6.00,6,0.100,22569.000,0.200,1455.000,0.300,726.000,0.500,949.000,1.000,325.000,5.000,0
"03/12/08","23:02:08",26708.000,"cc",28304.793,6.00,6,0.100,22869.000,0.200,1623.000,0.300,837.000,0.500,1049.000,1.000,330.000,5.000,0
"03/12/08","23:02:14",26252.000,"cc",28426.963,6.00,6,0.100,22681.000,0.200,1493.000,0.300,802.000,0.500,929.000,1.000,347.000,5.000,0
"03/12/08","23:02:20",26316.000,"cc",28309.773,6.00,6,0.100,22502.000,0.200,1624.000,0.300,809.000,0.500,1028.000,1.000,353.000,5.000,0
"03/12/08","23:02:26",26511.000,"cc",28265.301,6.00,6,0.100,22752.000,0.200,1657.000,0.300,791.000,0.500,978.000,1.000,333.000,5.000,0
"03/12/08","23:02:32",26615.000,"cc",28369.844,6.00,6,0.100,22723.000,0.200,1624.000,0.300,814.000,0.500,1081.000,1.000,373.000,5.000,0
"03/12/08","23:02:38",26599.000,"cc",28180.084,6.00,6,0.100,23006.000,0.200,1505.000,0.300,778.000,0.500,973.000,1.000,337.000,5.000,0
"03/12/08","23:02:44",26585.000,"cc",28406.850,6.00,6,0.100,22841.000,0.200,1647.000,0.300,798.000,0.500,969.000,1.000,330.000,5.000,0
"03/12/08","23:02:50",25819.000,"cc",28319.344,6.00,6,0.100,22334.000,0.200,1510.000,0.300,707.000,0.500,935.000,1.000,333.000,5.000,0
"03/12/08","23:02:56",26039.000,"cc",28269.389,6.00,6,0.100,22529.000,0.200,1515.000,0.300,765.000,0.500,921.000,1.000,309.000,5.000,0
"03/12/08","23:03:02",25982.000,"cc",28385.623,6.00,6,0.100,22466.000,0.200,1512.000,0.300,756.000,0.500,952.000,1.000,296.000,5.000,0
"03/12/08","23:03:08",26010.000,"cc",28410.527,6.00,6,0.100,22518.000,0.200,1540.000,0.300,700.000,0.500,921.000,1.000,331.000,5.000,0
"03/12/08","23:03:14",25847.000,"cc",28373.842,6.00,6,0.100,22274.000,0.200,1556.000,0.300,724.000,0.500,959.000,1.000,334.000,5.000,0
"03/12/08","23:03:20",26240.000,"cc",28156.674,6.00,6,0.100,22648.000,0.200,1549.000,0.300,733.000,0.500,982.000,1.000,328.000,5.000,0
"03/12/08","23:03:26",26619.000,"cc",28303.311,6.00,6,0.100,22772.000,0.200,1585.000,0.300,847.000,0.500,1035.000,1.000,380.000,5.000,0
"03/12/08","23:03:32",26527.000,"cc",28272.418,6.00,6,0.100,22835.000,0.200,1631.000,0.300,734.000,0.500,978.000,1.000,349.000,5.000,0
"03/12/08","23:03:38",26715.000,"cc",28348.578,6.00,6,0.100,22926.000,0.200,1572.000,0.300,774.000,0.500,1094.000,1.000,349.000,5.000,0
"03/12/08","23:03:44",26134.000,"cc",28359.301,6.00,6,0.100,22598.000,0.200,1471.000,0.300,780.000,0.500,954.000,1.000,331.000,5.000,0
"03/12/08","23:03:50",26111.000,"cc",28361.693,6.00,6,0.100,22364.000,0.200,1637.000,0.300,808.000,0.500,936.000,1.000,366.000,5.000,0
"03/12/08","23:03:56",25904.000,"cc",28191.441,6.00,6,0.100,22342.000,0.200,1504.000,0.300,774.000,0.500,989.000,1.000,295.000,5.000,0
"03/12/08","23:04:02",25932.000,"cc",28520.652,6.00,6,0.100,22229.000,0.200,1546.000,0.300,790.000,0.500,963.000,1.000,404.000,5.000,0
"03/12/08","23:04:08",25992.000,"cc",28217.391,6.00,6,0.100,22328.000,0.200,1545.000,0.300,761.000,0.500,1016.000,1.000,342.000,5.000,0
"03/12/08","23:04:14",26173.000,"cc",28180.457,6.00,6,0.100,22607.000,0.200,1561.000,0.300,767.000,0.500,902.000,1.000,336.000,5.000,0
"03/12/08","23:04:20",26092.000,"cc",28385.750,6.00,6,0.100,22494.000,0.200,1543.000,0.300,752.000,0.500,963.000,1.000,340.000,5.000,0
"03/12/08","23:04:26",26019.000,"cc",28256.902,6.00,6,0.100,22366.000,0.200,1581.000,0.300,747.000,0.500,1002.000,1.000,323.000,5.000,0
"03/12/08","23:04:32",26539.000,"cc",28327.137,6.00,6,0.100,22933.000,0.200,1576.000,0.300,718.000,0.500,967.000,1.000,345.000,5.000,0
"03/12/08","23:04:38",26257.000,"cc",28330.449,6.00,6,0.100,22714.000,0.200,1505.000,0.300,725.000,0.500,939.000,1.000,374.000,5.000,0
"03/12/08","23:04:44",26023.000,"cc",28297.451,6.00,6,0.100,22466.000,0.200,1531.000,0.300,761.000,0.500,939.000,1.000,326.000,5.000,0
"03/12/08","23:04:50",26480.000,"cc",28444.469,6.00,6,0.100,22674.000,0.200,1582.000,0.300,782.000,0.500,1067.000,1.000,375.000,5.000,0
"03/12/08","23:04:56",26011.000,"cc",28211.186,6.00,6,0.100,22268.000,0.200,1624.000,0.300,753.000,0.500,984.000,1.000,382.000,5.000,0
"03/12/08","23:05:02",26492.000,"cc",28378.277,6.00,6,0.100,22667.000,0.200,1614.000,0.300,815.000,0.500,1038.000,1.000,358.000,5.000,0
"03/12/08","23:05:08",26187.000,"cc",28235.430,6.00,6,0.100,22457.000,0.200,1588.000,0.300,755.000,0.500,1019.000,1.000,368.000,5.000,0
"03/12/08","23:05:14",26607.000,"cc",28309.227,6.00,6,0.100,22790.000,0.200,1651.000,0.300,778.000,0.500,1030.000,1.000,358.000,5.000,0
"03/12/08","23:05:20",26209.000,"cc",28383.289,6.00,6,0.100,22469.000,0.200,1604.000,0.300,729.000,0.500,1029.000,1.000,378.000,5.000,0
"03/12/08","23:05:26",26277.000,"cc",28373.266,6.00,6,0.100,22624.000,0.200,1636.000,0.300,745.000,0.500,902.000,1.000,370.000,5.000,0
"03/12/08","23:05:32",26253.000,"cc",28301.879,6.00,6,0.100,22597.000,0.200,1548.000,0.300,761.000,0.500,993.000,1.000,354.000,5.000,0
"03/12/08","23:05:38",26475.000,"cc",28374.037,6.00,6,0.100,22668.000,0.200,1604.000,0.300,770.000,0.500,1040.000,1.000,393.000,5.000,0
"03/12/08","23:05:44",26079.000,"cc",28279.955,6.00,6,0.100,22401.000,0.200,1576.000,0.300,771.000,0.500,991.000,1.000,340.000,5.000,0
"03/12/08","23:05:50",26166.000,"cc",28332.779,6.00,6,0.100,22540.000,0.200,1552.000,0.300,733.000,0.500,1013.000,1.000,328.000,5.000,0
"03/12/08","23:05:56",26375.000,"cc",28267.670,6.00,6,0.100,22678.000,0.200,1621.000,0.300,713.000,0.500,1019.000,1.000,344.000,5.000,0
"03/12/08","23:06:02",26400.000,"cc",28282.051,6.00,6,0.100,22656.000,0.200,1584.000,0.300,797.000,0.500,996.000,1.000,367.000,5.000,0
"03/12/08","23:06:08",26057.000,"cc",28353.201,6.00,6,0.100,22355.000,0.200,1603.000,0.300,781.000,0.500,980.000,1.000,338.000,5.000,0
"03/12/08","23:06:14",26061.000,"cc",28278.496,6.00,6,0.100,22407.000,0.200,1573.000,0.300,776.000,0.500,938.000,1.000,367.000,5.000,0
"03/12/08","23:06:20",26281.000,"cc",28358.998,6.00,6,0.100,22599.000,0.200,1580.000,0.300,770.000,0.500,989.000,1.000,343.000,5.000,0
"03/12/08","23:06:26",25914.000,"cc",28423.565,6.00,6,0.100,22292.000,0.200,1586.000,0.300,727.000,0.500,971.000,1.000,338.000,5.000,0
"03/12/08","23:06:32",25935.000,"cc",28205.904,6.00,6,0.100,22351.000,0.200,1564.000,0.300,747.000,0.500,950.000,1.000,323.000,5.000,0
"03/12/08","23:06:38",26017.000,"cc",28269.840,6.00,6,0.100,22311.000,0.200,1616.000,0.300,760.000,0.500,990.000,1.000,340.000,5.000,0
"03/12/08","23:06:44",26070.000,"cc",28279.039,6.00,6,0.100,22473.000,0.200,1556.000,0.300,752.000,0.500,928.000,1.000,361.000,5.000,0
"03/12/08","23:06:50",26308.000,"cc",28334.408,6.00,6,0.100,22674.000,0.200,1588.000,0.300,770.000,0.500,931.000,1.000,345.000,5.000,0
"03/12/08","23:06:56",26424.000,"cc",28277.572,6.00,6,0.100,22629.000,0.200,1643.000,0.300,790.000,0.500,1042.000,1.000,320.000,5.000,0
"03/12/08","23:07:02",26067.000,"cc",28354.648,6.00,6,0.100,22279.000,0.200,1635.000,0.300,750.000,0.500,1006.000,1.000,397.000,5.000,0
"03/12/08","23:07:08",26333.000,"cc",28224.334,6.00,6,0.100,22566.000,0.200,1622.000,0.300,836.000,0.500,1014.000,1.000,295.000,5.000,0
"03/12/08","23:07:14",26725.000,"cc",28381.748,6.00,6,0.100,22832.000,0.200,1681.000,0.300,788.000,0.500,1047.000,1.000,377.000,5.000,0
"03/12/08","23:07:20",26341.000,"cc",28284.303,6.00,6,0.100,22534.000,0.200,1650.000,0.300,780.000,0.500,1042.000,1.000,335.000,5.000,0
"03/12/08","23:07:26",26443.000,"cc",28269.863,6.00,6,0.100,22832.000,0.200,1524.000,0.300,760.000,0.500,977.000,1.000,350.000,5.000,0
"03/12/08","23:07:32",26047.000,"cc",28371.953,6.00,6,0.100,22475.000,0.200,1524.000,0.300,736.000,0.500,966.000,1.000,346.000,5.000,0
"03/12/08","23:07:38",25892.000,"cc",28345.330,6.00,6,0.100,22265.000,0.200,1516.000,0.300,750.000,0.500,1023.000,1.000,338.000,5.000,0
"03/12/08","23:07:44",25926.000,"cc",28329.078,6.00,6,0.100,22303.000,0.200,1592.000,0.300,772.000,0.500,927.000,1.000,332.000,5.000,0
"03/12/08","23:07:50",26107.000,"cc",28239.199,6.00,6,0.100,22500.000,0.200,1567.000,0.300,763.000,0.500,927.000,1.000,350.000,5.000,0
"03/12/08","23:07:56",26144.000,"cc",28398.289,6.00,6,0.100,22519.000,0.200,1596.000,0.300,801.000,0.500,894.000,1.000,334.000,5.000,0
"03/12/08","23:08:02",25538.000,"cc",28282.709,6.00,6,0.100,22130.000,0.200,1532.000,0.300,725.000,0.500,848.000,1.000,303.000,5.000,0
"03/12/08","23:08:08",26065.000,"cc",28438.162,6.00,6,0.100,22380.000,0.200,1611.000,0.300,713.000,0.500,973.000,1.000,388.000,5.000,0
"03/12/08","23:08:14",25728.000,"cc",28195.875,6.00,6,0.100,22148.000,0.200,1569.000,0.300,723.000,0.500,970.000,1.000,318.000,5.000,0
"03/12/08","23:08:20",26028.000,"cc",28403.434,6.00,6,0.100,22467.000,0.200,1504.000,0.300,782.000,0.500,944.000,1.000,331.000,5.000,0
"03/12/08","23:08:26",25957.000,"cc",28224.516,6.00,6,0.100,22298.000,0.200,1623.000,0.300,716.000,0.500,974.000,1.000,346.000,5.000,0
"03/12/08","23:08:32",26013.000,"cc",28220.272,6.00,6,0.100,22275.000,0.200,1623.000,0.300,803.000,0.500,962.000,1.000,350.000,5.000,0
"03/12/08","23:08:38",26318.000,"cc",28391.191,6.00,6,0.100,22612.000,0.200,1597.000,0.300,809.000,0.500,970.000,1.000,330.000,5.000,0
"03/12/08","23:08:44",25901.000,"cc",28344.248,6.00,6,0.100,22346.000,0.200,1606.000,0.300,742.000,0.500,900.000,1.000,307.000,5.000,0
"03/12/08","23:08:50",26139.000,"cc",28466.451,6.00,6,0.100,22543.000,0.200,1504.000,0.300,733.000,0.500,990.000,1.000,369.000,5.000,0
"03/12/08","23:08:56",25951.000,"cc",28309.955,6.00,6,0.100,22263.000,0.200,1595.000,0.300,749.000,0.500,981.000,1.000,363.000,5.000,0
"03/12/08","23:09:02",26185.000,"cc",28286.863,6.00,6,0.100,22316.000,0.200,1695.000,0.300,770.000,0.500,1075.000,1.000,329.000,5.000,0
"03/12/08","23:09:08",26145.000,"cc",28275.125,6.00,6,0.100,22459.000,0.200,1627.000,0.300,767.000,0.500,951.000,1.000,341.000,5.000,0
"03/12/08","23:09:14",25849.000,"cc",28283.857,6.00,6,0.100,22400.000,0.200,1453.000,0.300,747.000,0.500,954.000,1.000,295.000,5.000,0
"03/12/08","23:09:20",26246.000,"cc",28372.328,6.00,6,0.100,22578.000,0.200,1571.000,0.300,748.000,0.500,996.000,1.000,353.000,5.000,0
"03/12/08","23:09:26",26138.000,"cc",28343.600,6.00,6,0.100,22394.000,0.200,1666.000,0.300,742.000,0.500,981.000,1.000,355.000,5.000,0
"03/12/08","23:09:32",25906.000,"cc",28241.289,6.00,6,0.100,22442.000,0.200,1510.000,0.300,739.000,0.500,919.000,1.000,296.000,5.000,0
"03/12/08","23:09:38",26010.000,"cc",28206.113,6.00,6,0.100,22383.000,0.200,1571.000,0.300,780.000,0.500,932.000,1.000,344.000,5.000,0
"03/12/08","23:09:44",26200.000,"cc",28325.717,6.00,6,0.100,22551.000,0.200,1538.000,0.300,776.000,0.500,1007.000,1.000,328.000,5.000,0
"03/12/08","23:09:50",26008.000,"cc",28306.088,6.00,6,0.100,22525.000,0.200,1497.000,0.300,740.000,0.500,926.000,1.000,320.000,5.000,0
"03/12/08","23:09:56",25950.000,"cc",28344.053,6.00,6,0.100,22301.000,0.200,1594.000,0.300,763.000,0.500,962.000,1.000,330.000,5.000,0
"03/12/08","23:10:02",26224.000,"cc",28397.231,6.00,6,0.100,22389.000,0.200,1618.000,0.300,802.000,0.500,1091.000,1.000,324.000,5.000,0
"03/12/08","23:10:08",26424.000,"cc",28344.615,6.00,6,0.100,22569.000,0.200,1708.000,0.300,794.000,0.500,988.000,1.000,365.000,5.000,0
"03/12/08","23:10:14",26293.000,"cc",28265.898,6.00,6,0.100,22549.000,0.200,1629.000,0.300,792.000,0.500,988.000,1.000,335.000,5.000,0
"03/12/08","23:10:20",26286.000,"cc",28269.840,6.00,6,0.100,22540.000,0.200,1615.000,0.300,782.000,0.500,994.000,1.000,355.000,5.000,0
"03/12/08","23:10:26",26520.000,"cc",28334.746,6.00,6,0.100,22733.000,0.200,1622.000,0.300,810.000,0.500,1035.000,1.000,320.000,5.000,0
"03/12/08","23:10:32",26418.000,"cc",28446.588,6.00,6,0.100,22512.000,0.200,1727.000,0.300,848.000,0.500,964.000,1.000,367.000,5.000,0
"03/12/08","23:10:38",26168.000,"cc",28376.150,6.00,6,0.100,22526.000,0.200,1627.000,0.300,722.000,0.500,960.000,1.000,333.000,5.000,0
"03/12/08","23:10:44",25977.000,"cc",28250.555,6.00,6,0.100,22361.000,0.200,1580.000,0.300,763.000,0.500,919.000,1.000,354.000,5.000,0
"03/12/08","23:10:50",26055.000,"cc",28353.387,6.00,6,0.100,22396.000,0.200,1578.000,0.300,767.000,0.500,959.000,1.000,355.000,5.000,0
"03/12/08","23:10:56",25959.000,"cc",28313.863,6.00,6,0.100,22390.000,0.200,1527.000,0.300,730.000,0.500,985.000,1.000,327.000,5.000,0
"03/12/08","23:11:02",25504.000,"cc",28299.922,6.00,6,0.100,22062.000,0.200,1480.000,0.300,738.000,0.500,891.000,1.000,333.000,5.000,0
"03/12/08","23:11:08",25710.000,"cc",28270.633,6.00,6,0.100,22130.000,0.200,1595.000,0.300,715.000,0.500,963.000,1.000,307.000,5.000,0
"03/12/08","23:11:14",25979.000,"cc",28298.881,6.00,6,0.100,22375.000,0.200,1626.000,0.300,730.000,0.500,914.000,1.000,334.000,5.000,0
"03/12/08","23:11:20",26158.000,"cc",28340.678,6.00,6,0.100,22474.000,0.200,1636.000,0.300,738.000,0.500,963.000,1.000,347.000,5.000,0
"03/12/08","23:11:26",25716.000,"cc",28339.889,6.00,6,0.100,22099.000,0.200,1644.000,0.300,707.000,0.500,938.000,1.000,328.000,5.000,0
"03/12/08","23:11:32",25560.000,"cc",28309.301,6.00,6,0.100,22040.000,0.200,1478.000,0.300,753.000,0.500,943.000,1.000,346.000,5.000,0
"03/12/08","23:11:38",25829.000,"cc",28341.729,6.00,6,0.100,22234.000,0.200,1527.000,0.300,774.000,0.500,940.000,1.000,354.000,5.000,0
"03/12/08","23:11:44",26070.000,"cc",28338.188,6.00,6,0.100,22349.000,0.200,1643.000,0.300,777.000,0.500,960.000,1.000,341.000,5.000,0
"03/12/08","23:11:50",26036.000,"cc",28254.047,6.00,6,0.100,22336.000,0.200,1640.000,0.300,784.000,0.500,954.000,1.000,322.000,5.000,0
"03/12/08","23:11:56",26189.000,"cc",28273.994,6.00,6,0.100,22459.000,0.200,1580.000,0.300,801.000,0.500,1001.000,1.000,348.000,5.000,0
"03/12/08","23:12:02",26333.000,"cc",28347.490,6.00,6,0.100,22617.000,0.200,1609.000,0.300,838.000,0.500,948.000,1.000,321.000,5.000,0
"03/12/08","23:12:08",26094.000,"cc",28328.512,6.00,6,0.100,22411.000,0.200,1658.000,0.300,747.000,0.500,966.000,1.000,312.000,5.000,0
"03/12/08","23:12:14",25686.000,"cc",28353.785,6.00,6,0.100,22104.000,0.200,1562.000,0.300,731.000,0.500,947.000,1.000,342.000,5.000,0
"03/12/08","23:12:20",25844.000,"cc",28388.867,6.00,6,0.100,22128.000,0.200,1585.000,0.300,758.000,0.500,999.000,1.000,374.000,5.000,0
"03/12/08","23:12:26",25898.000,"cc",28266.678,6.00,6,0.100,22190.000,0.200,1580.000,0.300,766.000,0.500,1001.000,1.000,361.000,5.000,0
"03/12/08","23:12:32",26265.000,"cc",28217.164,6.00,6,0.100,22500.000,0.200,1617.000,0.300,755.000,0.500,1038.000,1.000,355.000,5.000,0
"03/12/08","23:12:38",25819.000,"cc",28315.736,6.00,6,0.100,22195.000,0.200,1609.000,0.300,716.000,0.500,956.000,1.000,343.000,5.000,0
"03/12/08","23:12:44",26029.000,"cc",28224.361,6.00,6,0.100,22356.000,0.200,1615.000,0.300,782.000,0.500,954.000,1.000,322.000,5.000,0
"03/12/08","23:12:50",25935.000,"cc",28429.697,6.00,6,0.100,22308.000,0.200,1593.000,0.300,711.000,0.500,999.000,1.000,324.000,5.000,0
"03/12/08","23:12:56",25536.000,"cc",28346.641,6.00,6,0.100,21998.000,0.200,1579.000,0.300,712.000,0.500,908.000,1.000,339.000,5.000,0
"03/12/08","23:13:02",25525.000,"cc",28253.246,6.00,6,0.100,22001.000,0.200,1477.000,0.300,757.000,0.500,967.000,1.000,323.000,5.000,0
"03/12/08","23:13:08",25528.000,"cc",28339.869,6.00,6,0.100,21991.000,0.200,1567.000,0.300,739.000,0.500,931.000,1.000,300.000,5.000,0
"03/12/08","23:13:14",25878.000,"cc",28227.377,6.00,6,0.100,22278.000,0.200,1589.000,0.300,770.000,0.500,889.000,1.000,352.000,5.000,0
"03/12/08","23:13:20",26124.000,"cc",28450.574,6.00,6,0.100,22309.000,0.200,1646.000,0.300,764.000,0.500,1025.000,1.000,380.000,5.000,0
"03/12/08","23:13:26",25871.000,"cc",28215.301,6.00,6,0.100,22334.000,0.200,1539.000,0.300,769.000,0.500,856.000,1.000,373.000,5.000,0
"03/12/08","23:13:32",25855.000,"cc",28402.598,6.00,6,0.100,22381.000,0.200,1508.000,0.300,705.000,0.500,959.000,1.000,302.000,5.000,0
"03/12/08","23:13:38",25929.000,"cc",28373.008,6.00,6,0.100,22203.000,0.200,1557.000,0.300,825.000,0.500,1005.000,1.000,339.000,5.000,0
"03/12/08","23:13:44",25640.000,"cc",28134.781,6.00,6,0.100,22008.000,0.200,1583.000,0.300,736.000,0.500,971.000,1.000,342.000,5.000,0
"03/12/08","23:13:50",26127.000,"cc",28383.129,6.00,6,0.100,22535.000,0.200,1600.000,0.300,738.000,0.500,921.000,1.000,333.000,5.000,0
"03/12/08","23:13:56",25854.000,"cc",28232.244,6.00,6,0.100,22200.000,0.200,1626.000,0.300,708.000,0.500,977.000,1.000,343.000,5.000,0
"03/12/08","23:14:02",25952.000,"cc",28385.445,6.00,6,0.100,22298.000,0.200,1617.000,0.300,744.000,0.500,945.000,1.000,348.000,5.000,0
"03/12/08","23:14:08",25717.000,"cc",28373.668,6.00,6,0.100,22098.000,0.200,1562.000,0.300,785.000,0.500,944.000,1.000,328.000,5.000,0
"03/12/08","23:14:14",25708.000,"cc",28293.998,6.00,6,0.100,22086.000,0.200,1587.000,0.300,774.000,0.500,928.000,1.000,333.000,5.000,0
"03/12/08","23:14:20",25669.000,"cc",28355.477,6.00,6,0.100,22076.000,0.200,1574.000,0.300,752.000,0.500,940.000,1.000,327.000,5.000,0
"03/12/08","23:14:26",25603.000,"cc",28286.309,6.00,6,0.100,22041.000,0.200,1548.000,0.300,790.000,0.500,896.000,1.000,328.000,5.000,0
"03/12/08","23:14:32",25747.000,"cc",28403.377,6.00,6,0.100,22133.000,0.200,1528.000,0.300,781.000,0.500,972.000,1.000,333.000,5.000,0
"03/12/08","23:14:38",25455.000,"cc",28288.813,6.00,6,0.100,21904.000,0.200,1535.000,0.300,722.000,0.500,932.000,1.000,362.000,5.000,0
"03/12/08","23:14:44",25757.000,"cc",28371.918,6.00,6,0.100,22150.000,0.200,1598.000,0.300,755.000,0.500,921.000,1.000,333.000,5.000,0
"03/12/08","23:14:50",25869.000,"cc",28293.002,6.00,6,0.100,22273.000,0.200,1578.000,0.300,749.000,0.500,945.000,1.000,324.000,5.000,0
"03/12/08","23:14:56",25812.000,"cc",28320.133,6.00,6,0.100,22114.000,0.200,1636.000,0.300,743.000,0.500,977.000,1.000,342.000,5.000,0
"03/12/08","23:15:02",26071.000,"cc",28189.916,6.00,6,0.100,22309.000,0.200,1623.000,0.300,749.000,0.500,1044.000,1.000,346.000,5.000,0
"03/12/08","23:15:08",25953.000,"cc",28383.318,6.00,6,0.100,22218.000,0.200,1662.000,0.300,765.000,0.500,990.000,1.000,318.000,5.000,0
"03/12/08","23:15:14",26093.000,"cc",28313.887,6.00,6,0.100,22329.000,0.200,1593.000,0.300,813.000,0.500,998.000,1.000,360.000,5.000,0
"03/12/08","23:15:20",25968.000,"cc",28373.740,6.00,6,0.100,22277.000,0.200,1624.000,0.300,779.000,0.500,990.000,1.000,298.000,5.000,0
"03/12/08","23:15:26",25784.000,"cc",28226.426,6.00,6,0.100,22223.000,0.200,1501.000,0.300,740.000,0.500,959.000,1.000,361.000,5.000,0
"03/12/08","23:15:32",25843.000,"cc",28369.662,6.00,6,0.100,22215.000,0.200,1549.000,0.300,740.000,0.500,967.000,1.000,372.000,5.000,0
"03/12/08","23:15:38",25794.000,"cc",28187.723,6.00,6,0.100,22176.000,0.200,1587.000,0.300,704.000,0.500,981.000,1.000,346.000,5.000,0
"03/12/08","23:15:44",25233.000,"cc",28296.365,6.00,6,0.100,21730.000,0.200,1533.000,0.300,718.000,0.500,929.000,1.000,323.000,5.000,0
"03/12/08","23:15:50",25863.000,"cc",28319.676,6.00,6,0.100,22202.000,0.200,1602.000,0.300,709.000,0.500,992.000,1.000,358.000,5.000,0
"03/12/08","23:15:56",25893.000,"cc",28398.482,6.00,6,0.100,22338.000,0.200,1572.000,0.300,716.000,0.500,959.000,1.000,308.000,5.000,0
"03/12/08","23:16:02",25555.000,"cc",28228.785,6.00,6,0.100,22017.000,0.200,1550.000,0.300,735.000,0.500,900.000,1.000,353.000,5.000,0
"03/12/08","23:16:08",25669.000,"cc",28406.256,6.00,6,0.100,22106.000,0.200,1541.000,0.300,720.000,0.500,956.000,1.000,346.000,5.000,0
"03/12/08","23:16:14",25634.000,"cc",28423.467,6.00,6,0.100,22125.000,0.200,1526.000,0.300,727.000,0.500,931.000,1.000,325.000,5.000,0
"03/12/08","23:16:20",25482.000,"cc",28347.889,6.00,6,0.100,21943.000,0.200,1518.000,0.300,708.000,0.500,937.000,1.000,376.000,5.000,0
"03/12/08","23:16:26",25737.000,"cc",28119.301,6.00,6,0.100,22150.000,0.200,1592.000,0.300,745.000,0.500,941.000,1.000,309.000,5.000,0
"03/12/08","23:16:32",25875.000,"cc",28407.660,6.00,6,0.100,22425.000,0.200,1554.000,0.300,676.000,0.500,883.000,1.000,337.000,5.000,0